CST,Max TemperatureF,Mean TemperatureF,Min TemperatureF,Max Dew PointF,MeanDew PointF,Min DewpointF,Max Humidity, Mean Humidity, Min Humidity, Max Sea Level PressureIn, Mean Sea Level PressureIn, Min Sea Level PressureIn, Max VisibilityMiles, Mean VisibilityMiles, Min VisibilityMiles, Max Wind SpeedMPH, Mean Wind SpeedMPH, Max Gust SpeedMPH,PrecipitationIn, CloudCover, Events, WindDirDegrees
2012-12-1,67,58,49,50,46,42,71,62,52,30.20,30.14,30.07,10,10,10,15,8,21,0.00,6,,182
2012-12-2,67,65,62,60,57,49,84,72,60,30.13,30.09,30.06,10,10,7,17,10,25,T,8,Rain,206
2012-12-3,71,66,61,59,57,51,84,71,58,30.13,30.07,30.03,10,10,10,18,9,28,0.00,4,,193
2012-12-4,67,55,43,63,55,42,89,79,68,30.27,30.11,30.02,10,8,1,17,9,24,0.50,7,Rain-Thunderstorm,301
2012-12-5,61,48,34,43,37,33,100,69,37,30.35,30.26,30.14,10,8,0,14,4,17,0.00,0,Fog,45
2012-12-6,55,47,38,52,47,33,100,86,71,30.13,30.00,29.94,10,6,2,8,3,10,T,7,,146
2012-12-7,61,57,53,57,54,51,100,90,80,29.94,29.88,29.83,9,5,0,13,4,16,0.08,8,Fog-Rain,200
2012-12-8,61,56,50,57,52,47,100,86,72,29.96,29.91,29.84,10,5,2,15,7,17,0.00,8,,356
2012-12-9,65,56,47,61,55,45,93,89,84,29.91,29.80,29.72,10,6,1,23,9,30,1.21,7,Rain-Thunderstorm,197
2012-12-10,47,39,31,44,29,20,93,81,69,30.09,29.92,29.81,10,10,6,17,11,24,0.00,8,,334
2012-12-11,41,33,24,24,22,20,92,70,48,30.28,30.18,30.09,10,10,9,12,3,15,0.00,2,,279
2012-12-12,49,35,21,28,23,18,88,64,39,30.39,30.34,30.28,10,9,5,7,1,9,0.00,0,,96
2012-12-13,53,37,21,29,23,20,96,61,26,30.41,30.34,30.26,10,10,7,10,2,12,0.00,0,,169
2012-12-14,55,40,25,36,28,21,81,58,35,30.31,30.21,30.08,10,10,10,13,4,17,0.00,0,,185
2012-12-15,61,55,48,57,50,38,93,77,61,30.05,29.85,29.76,10,9,2,21,11,28,0.11,8,Rain,189
2012-12-16,61,58,55,57,54,48,93,79,64,29.78,29.73,29.66,10,10,8,13,7,17,0.00,3,,217
2012-12-17,58,51,43,54,49,37,93,80,67,29.82,29.69,29.60,10,9,5,23,8,29,0.00,7,,236
2012-12-18,57,45,32,39,37,33,92,71,50,29.90,29.85,29.79,10,10,6,17,5,24,0.00,1,,207
2012-12-19,62,48,34,52,43,33,93,72,51,29.99,29.88,29.65,10,9,2,21,8,29,0.00,3,,134
2012-12-20,62,47,31,57,39,19,100,74,48,29.97,29.62,29.37,10,9,2,41,21,54,0.57,7,Rain-Thunderstorm,233
2012-12-21,42,35,27,19,14,11,63,47,30,30.30,30.19,29.99,10,10,10,22,12,29,0.00,0,,290
2012-12-22,47,33,19,26,18,13,84,58,31,30.34,30.22,30.05,10,10,10,9,4,15,0.00,0,,191
2012-12-23,59,50,41,49,40,27,100,77,53,30.04,29.93,29.83,10,8,1,13,7,17,T,4,,193
2012-12-24,52,42,31,48,40,26,100,77,54,30.10,29.90,29.77,10,4,0,17,7,24,0.01,6,Fog,327
2012-12-25,36,33,30,31,27,25,89,80,70,30.16,29.98,29.68,9,6,2,32,16,43,0.13,8,Rain-Snow,40
2012-12-26,34,33,31,30,28,24,92,81,69,30.16,29.81,29.61,10,4,0,30,16,77,0.55,8,Fog-Rain-Snow,342
2012-12-27,35,32,29,27,25,24,85,75,64,30.22,30.16,30.10,10,10,7,8,4,,0.00,8,,74
2012-12-28,39,34,29,34,31,27,100,85,70,30.09,29.91,29.81,8,5,1,12,4,16,0.35,7,Rain,32
2012-12-29,33,27,21,31,27,18,92,84,75,30.40,30.10,29.86,10,5,1,20,9,26,0.04,7,Rain-Snow,295
2012-12-30,39,29,18,26,22,16,92,76,59,30.53,30.43,30.34,10,8,3,10,3,13,0.00,0,,206
2012-12-31,41,37,33,36,31,25,100,80,60,30.31,30.16,30.05,10,6,1,10,4,13,0.37,7,Rain,186